Time,TemperatureF,DewpointF,PressureIn,WindDirection,WindDirectionDegrees,WindSpeedMPH,WindSpeedGustMPH,Humidity,HourlyPrecipIn,Conditions,Clouds,dailyrainin,SoftwareType,DateUTC
2017-02-24 00:00:00,68.9,63.9,29.74,NNE,18,6.9,7.0,84,0.00,,,0.00,meteobridge,2017-02-24 05:00:00,
2017-02-24 00:05:00,68.9,63.9,29.74,NNW,338,4.9,6.0,84,0.00,,,0.00,meteobridge,2017-02-24 05:05:00,
2017-02-24 00:06:00,68.9,63.9,29.74,North,355,0.9,5.0,84,0.00,,,0.00,meteobridge,2017-02-24 05:06:00,
2017-02-24 00:12:00,68.9,63.9,29.73,NNE,17,4.0,7.0,84,0.00,,,0.00,meteobridge,2017-02-24 05:12:00,
2017-02-24 00:17:00,68.7,63.7,29.74,NNE,18,6.0,11.0,84,0.00,,,0.00,meteobridge,2017-02-24 05:17:00,
2017-02-24 00:22:00,68.7,64.0,29.74,NNE,24,6.0,7.0,85,0.00,,,0.00,meteobridge,2017-02-24 05:22:00,
2017-02-24 00:27:00,68.5,63.9,29.74,NNE,27,0.9,6.0,85,0.00,,,0.00,meteobridge,2017-02-24 05:27:00,
2017-02-24 00:32:00,68.5,63.9,29.74,North,350,4.9,7.0,85,0.00,,,0.00,meteobridge,2017-02-24 05:32:00,
2017-02-24 00:37:00,68.4,64.0,29.74,NNW,346,4.9,7.0,86,0.00,,,0.00,meteobridge,2017-02-24 05:37:00,
2017-02-24 00:42:00,68.4,64.0,29.74,NNE,13,4.9,8.0,86,0.00,,,0.00,meteobridge,2017-02-24 05:42:00,
2017-02-24 00:47:00,68.2,63.9,29.74,North,10,2.9,8.0,86,0.00,,,0.00,meteobridge,2017-02-24 05:47:00,
2017-02-24 00:52:00,68.2,64.2,29.74,North,5,4.0,9.0,87,0.00,,,0.00,meteobridge,2017-02-24 05:52:00,
2017-02-24 00:57:00,67.8,63.9,29.74,North,0,4.0,6.0,87,0.00,,,0.00,meteobridge,2017-02-24 05:57:00,
2017-02-24 01:02:00,67.8,63.9,29.74,NE,42,2.9,7.0,87,0.00,,,0.00,meteobridge,2017-02-24 06:02:00,
2017-02-24 01:07:00,67.6,63.7,29.74,NNE,30,2.9,6.0,87,0.00,,,0.00,meteobridge,2017-02-24 06:07:00,
2017-02-24 01:12:00,67.6,64.0,29.74,North,355,4.0,6.0,88,0.00,,,0.00,meteobridge,2017-02-24 06:12:00,
2017-02-24 01:17:00,67.5,63.9,29.74,NNE,13,2.0,7.0,88,0.00,,,0.00,meteobridge,2017-02-24 06:17:00,
2017-02-24 01:22:00,67.5,63.9,29.74,NNW,342,2.0,5.0,88,0.00,,,0.00,meteobridge,2017-02-24 06:22:00,
2017-02-24 01:27:00,67.3,63.7,29.74,North,0,2.9,6.0,88,0.00,,,0.00,meteobridge,2017-02-24 06:27:00,
2017-02-24 01:32:00,67.3,63.9,29.74,North,350,4.0,7.0,89,0.00,,,0.00,meteobridge,2017-02-24 06:32:00,
2017-02-24 01:38:00,67.1,63.7,29.74,NNW,343,4.0,4.0,89,0.00,,,0.00,meteobridge,2017-02-24 06:38:00,
2017-02-24 01:43:00,66.9,63.5,29.74,NNE,13,4.0,6.0,89,0.00,,,0.00,meteobridge,2017-02-24 06:43:00,
2017-02-24 01:48:00,66.9,63.9,29.74,NNW,341,9.0,9.0,90,0.00,,,0.00,meteobridge,2017-02-24 06:48:00,
2017-02-24 01:53:00,66.9,63.9,29.74,North,355,4.0,6.0,90,0.00,,,0.00,meteobridge,2017-02-24 06:53:00,
2017-02-24 01:58:00,66.7,63.7,29.74,North,355,0.9,7.0,90,0.00,,,0.00,meteobridge,2017-02-24 06:58:00,
2017-02-24 02:03:00,66.7,63.7,29.74,North,355,2.9,5.0,90,0.00,,,0.00,meteobridge,2017-02-24 07:03:00,
2017-02-24 02:08:00,66.7,63.7,29.74,North,11,2.0,7.0,90,0.00,,,0.00,meteobridge,2017-02-24 07:08:00,
2017-02-24 02:13:00,66.7,64.0,29.74,North,355,4.0,5.0,91,0.00,,,0.00,meteobridge,2017-02-24 07:13:00,
2017-02-24 02:18:00,66.7,64.0,29.74,North,5,2.9,6.0,91,0.00,,,0.00,meteobridge,2017-02-24 07:18:00,
2017-02-24 02:23:00,66.6,63.9,29.74,NNW,347,2.9,6.0,91,0.00,,,0.00,meteobridge,2017-02-24 07:23:00,
2017-02-24 02:28:00,66.6,63.9,29.74,NNW,337,6.9,8.0,91,0.00,,,0.00,meteobridge,2017-02-24 07:28:00,
2017-02-24 02:33:00,66.6,63.9,29.74,North,355,2.0,6.0,91,0.00,,,0.00,meteobridge,2017-02-24 07:33:00,
2017-02-24 02:38:00,66.4,64.0,29.74,NNW,340,6.0,7.0,92,0.00,,,0.00,meteobridge,2017-02-24 07:38:00,
2017-02-24 02:43:00,66.4,64.0,29.74,North,5,0.0,8.0,92,0.00,,,0.00,meteobridge,2017-02-24 07:43:00,
2017-02-24 02:48:00,66.4,64.0,29.74,North,0,2.0,8.0,92,0.00,,,0.00,meteobridge,2017-02-24 07:48:00,
2017-02-24 02:53:00,66.2,63.9,29.74,NNW,346,4.0,8.0,92,0.00,,,0.00,meteobridge,2017-02-24 07:53:00,
2017-02-24 02:58:00,66.2,63.9,29.73,NNE,26,8.1,9.0,92,0.00,,,0.00,meteobridge,2017-02-24 07:58:00,
2017-02-24 03:04:00,66.2,64.0,29.73,North,5,0.9,6.0,93,0.00,,,0.00,meteobridge,2017-02-24 08:04:00,
2017-02-24 03:09:00,66.2,64.0,29.74,North,5,4.0,6.0,93,0.00,,,0.00,meteobridge,2017-02-24 08:09:00,
2017-02-24 03:14:00,66.0,63.9,29.74,NNW,346,4.9,6.0,93,0.00,,,0.00,meteobridge,2017-02-24 08:14:00,
2017-02-24 03:19:00,66.0,63.9,29.74,North,351,6.0,9.0,93,0.00,,,0.00,meteobridge,2017-02-24 08:19:00,
2017-02-24 03:24:00,65.8,63.7,29.74,North,355,2.0,6.0,93,0.00,,,0.00,meteobridge,2017-02-24 08:24:00,
2017-02-24 03:29:00,65.8,63.7,29.74,North,0,2.0,5.0,93,0.00,,,0.00,meteobridge,2017-02-24 08:29:00,
2017-02-24 03:34:00,65.8,63.7,29.74,North,5,4.9,8.0,93,0.00,,,0.00,meteobridge,2017-02-24 08:34:00,
2017-02-24 03:39:00,65.7,63.5,29.74,NNW,346,4.9,6.0,93,0.00,,,0.00,meteobridge,2017-02-24 08:39:00,
2017-02-24 03:44:00,65.7,63.5,29.74,North,5,2.0,6.0,93,0.00,,,0.00,meteobridge,2017-02-24 08:44:00,
2017-02-24 03:49:00,65.7,63.9,29.74,NNE,14,2.0,5.0,94,0.00,,,0.00,meteobridge,2017-02-24 08:49:00,
2017-02-24 03:54:00,65.7,63.9,29.74,NNE,13,0.9,6.0,94,0.00,,,0.00,meteobridge,2017-02-24 08:54:00,
2017-02-24 03:59:00,65.7,63.9,29.74,NNE,26,4.0,6.0,94,0.00,,,0.00,meteobridge,2017-02-24 08:59:00,
2017-02-24 04:04:00,65.8,64.0,29.74,NNW,346,2.0,7.0,94,0.00,,,0.00,meteobridge,2017-02-24 09:04:00,
2017-02-24 04:09:00,65.8,64.0,29.74,NNE,28,0.9,7.0,94,0.00,,,0.00,meteobridge,2017-02-24 09:09:00,
2017-02-24 04:14:00,65.8,64.0,29.75,NNE,14,2.9,4.0,94,0.00,,,0.00,meteobridge,2017-02-24 09:14:00,
2017-02-24 04:19:00,65.8,64.0,29.75,North,9,2.0,8.0,94,0.00,,,0.00,meteobridge,2017-02-24 09:19:00,
2017-02-24 04:24:00,66.0,64.2,29.75,North,9,0.9,2.0,94,0.00,,,0.00,meteobridge,2017-02-24 09:24:00,
2017-02-24 04:30:00,66.0,64.2,29.75,NNE,13,0.9,8.0,94,0.00,,,0.00,meteobridge,2017-02-24 09:30:00,
2017-02-24 04:35:00,66.0,64.2,29.75,NNE,27,2.9,4.0,94,0.00,,,0.00,meteobridge,2017-02-24 09:35:00,
2017-02-24 04:40:00,66.0,64.2,29.75,North,355,2.0,6.0,94,0.00,,,0.00,meteobridge,2017-02-24 09:40:00,
2017-02-24 04:45:00,66.0,64.2,29.75,NNW,339,4.9,7.0,94,0.00,,,0.00,meteobridge,2017-02-24 09:45:00,
2017-02-24 04:50:00,66.2,64.4,29.75,NE,52,2.0,5.0,94,0.00,,,0.00,meteobridge,2017-02-24 09:50:00,
2017-02-24 04:55:00,66.2,64.4,29.75,NNE,13,0.9,7.0,94,0.00,,,0.00,meteobridge,2017-02-24 09:55:00,
2017-02-24 05:00:00,66.2,64.0,29.75,NNE,19,2.0,9.0,93,0.00,,,0.00,meteobridge,2017-02-24 10:00:00,
2017-02-24 05:05:00,66.2,64.0,29.75,NE,56,2.9,7.0,93,0.00,,,0.00,meteobridge,2017-02-24 10:05:00,
2017-02-24 05:10:00,66.4,64.2,29.75,NNE,15,0.9,4.0,93,0.00,,,0.00,meteobridge,2017-02-24 10:10:00,
2017-02-24 05:15:00,66.4,64.2,29.75,NNE,28,2.0,5.0,93,0.00,,,0.00,meteobridge,2017-02-24 10:15:00,
2017-02-24 05:17:00,66.4,64.2,29.76,NE,52,0.9,3.0,93,0.00,,,0.00,meteobridge,2017-02-24 10:17:00,
2017-02-24 05:22:00,66.4,64.2,29.76,NNE,15,0.9,4.0,93,0.00,,,0.00,meteobridge,2017-02-24 10:22:00,
2017-02-24 05:27:00,66.4,64.2,29.76,East,82,0.9,2.0,93,0.00,,,0.00,meteobridge,2017-02-24 10:27:00,
2017-02-24 05:32:00,66.4,64.2,29.76,NNE,13,0.9,5.0,93,0.00,,,0.00,meteobridge,2017-02-24 10:32:00,
2017-02-24 05:37:00,66.4,64.2,29.76,NNE,23,4.0,5.0,93,0.00,,,0.00,meteobridge,2017-02-24 10:37:00,
2017-02-24 05:42:00,66.4,64.2,29.76,North,10,8.9,9.0,93,0.00,,,0.00,meteobridge,2017-02-24 10:42:00,
2017-02-24 05:47:00,66.4,64.2,29.76,NNE,13,4.0,7.0,93,0.00,,,0.00,meteobridge,2017-02-24 10:47:00,
2017-02-24 05:52:00,66.4,64.2,29.76,North,9,0.9,2.0,93,0.00,,,0.00,meteobridge,2017-02-24 10:52:00,
2017-02-24 05:57:00,66.4,64.2,29.77,NNE,24,2.9,7.0,93,0.00,,,0.00,meteobridge,2017-02-24 10:57:00,
2017-02-24 06:02:00,66.2,64.0,29.77,NE,44,0.0,1.0,93,0.00,,,0.00,meteobridge,2017-02-24 11:02:00,
2017-02-24 06:07:00,66.2,64.0,29.77,East,85,0.0,2.0,93,0.00,,,0.00,meteobridge,2017-02-24 11:07:00,
2017-02-24 06:12:00,66.0,63.9,29.77,North,5,0.9,5.0,93,0.00,,,0.00,meteobridge,2017-02-24 11:12:00,
2017-02-24 06:18:00,66.0,63.9,29.77,NNE,28,0.0,1.0,93,0.00,,,0.00,meteobridge,2017-02-24 11:18:00,
2017-02-24 06:23:00,66.0,63.9,29.77,NNE,30,0.9,3.0,93,0.00,,,0.00,meteobridge,2017-02-24 11:23:00,
2017-02-24 06:28:00,65.8,63.7,29.77,North,5,0.0,0.0,93,0.00,,,0.00,meteobridge,2017-02-24 11:28:00,
2017-02-24 06:33:00,65.8,63.7,29.77,NE,34,0.0,2.0,93,0.00,,,0.00,meteobridge,2017-02-24 11:33:00,
2017-02-24 06:38:00,65.8,63.7,29.77,North,5,0.0,1.0,93,0.00,,,0.00,meteobridge,2017-02-24 11:38:00,
2017-02-24 06:43:00,65.7,63.5,29.77,North,5,0.9,2.0,93,0.00,,,0.00,meteobridge,2017-02-24 11:43:00,
2017-02-24 06:48:00,65.7,63.5,29.78,NNE,12,0.0,0.0,93,0.00,,,0.00,meteobridge,2017-02-24 11:48:00,
2017-02-24 06:53:00,65.7,63.9,29.78,North,5,0.9,2.0,94,0.00,,,0.00,meteobridge,2017-02-24 11:53:00,
2017-02-24 06:58:00,65.7,63.9,29.78,North,5,0.9,4.0,94,0.00,,,0.00,meteobridge,2017-02-24 11:58:00,
2017-02-24 07:03:00,65.7,63.9,29.78,North,9,0.9,3.0,94,0.00,,,0.00,meteobridge,2017-02-24 12:03:00,
2017-02-24 07:08:00,65.7,63.9,29.78,North,5,0.9,5.0,94,0.00,,,0.00,meteobridge,2017-02-24 12:08:00,
2017-02-24 07:13:00,65.7,63.9,29.78,NNE,18,0.0,2.0,94,0.00,,,0.00,meteobridge,2017-02-24 12:13:00,
2017-02-24 07:18:00,65.7,63.9,29.78,NNE,31,0.0,4.0,94,0.00,,,0.00,meteobridge,2017-02-24 12:18:00,
2017-02-24 07:23:00,65.7,63.9,29.78,NNE,33,0.0,2.0,94,0.00,,,0.00,meteobridge,2017-02-24 12:23:00,
2017-02-24 07:28:00,65.7,63.9,29.78,NNE,33,0.9,2.0,94,0.00,,,0.00,meteobridge,2017-02-24 12:28:00,
2017-02-24 07:33:00,65.8,64.0,29.79,North,355,0.9,4.0,94,0.00,,,0.00,meteobridge,2017-02-24 12:33:00,
2017-02-24 07:38:00,65.8,64.0,29.79,North,0,2.0,2.0,94,0.00,,,0.00,meteobridge,2017-02-24 12:38:00,
2017-02-24 07:44:00,66.0,64.2,29.79,North,11,0.9,7.0,94,0.00,,,0.00,meteobridge,2017-02-24 12:44:00,
2017-02-24 07:49:00,66.4,64.6,29.79,North,5,0.9,5.0,94,0.00,,,0.00,meteobridge,2017-02-24 12:49:00,
2017-02-24 07:54:00,66.6,64.8,29.79,NNE,13,4.0,6.0,94,0.00,,,0.00,meteobridge,2017-02-24 12:54:00,
2017-02-24 07:59:00,66.7,64.9,29.79,NNE,17,4.0,6.0,94,0.00,,,0.00,meteobridge,2017-02-24 12:59:00,
2017-02-24 08:04:00,66.9,65.1,29.80,NNE,13,0.9,6.0,94,0.00,,,0.00,meteobridge,2017-02-24 13:04:00,
2017-02-24 08:09:00,67.1,64.9,29.80,North,5,8.1,8.1,93,0.00,,,0.00,meteobridge,2017-02-24 13:09:00,
2017-02-24 08:14:00,67.3,65.1,29.80,NNW,342,4.9,7.0,93,0.00,,,0.00,meteobridge,2017-02-24 13:14:00,
2017-02-24 08:19:00,67.3,64.9,29.80,North,355,2.9,6.0,92,0.00,,,0.00,meteobridge,2017-02-24 13:19:00,
2017-02-24 08:24:00,67.5,65.1,29.80,NNE,19,2.0,5.0,92,0.00,,,0.00,meteobridge,2017-02-24 13:24:00,
2017-02-24 08:29:00,67.5,65.1,29.80,North,5,0.0,5.0,92,0.00,,,0.00,meteobridge,2017-02-24 13:29:00,
2017-02-24 08:35:00,67.6,64.9,29.80,NNW,335,4.0,7.0,91,0.00,,,0.00,meteobridge,2017-02-24 13:35:00,
2017-02-24 08:40:00,67.6,64.9,29.81,NNW,336,4.0,6.0,91,0.00,,,0.00,meteobridge,2017-02-24 13:40:00,